ECHOSTAR 19

Last updated on Thu Oct 30 2025 00:02:50 GMT+0000 (Coordinated Universal Time)

1 41893U 16079A 25302.45740543 -.00000129 00000+0 00000+0 0 9993 2 41893 0.0163 229.8059 0001241 339.8725 255.9607 1.00271282 32391
UTC large
Height (km)
Speed (km/s)
/
Latitude / Longitude
Inclination (degrees)
Orbital Period (minutes)
Azimuth
Elevation
Range (km)
Doppler Factor

Next 0 passes for location: London (51.5072 / 0.1276)

Sorry there are no passes over London.